• In Österreich
  • Länderverzeichnis
  • Für 7 Tage
  • Wassertemperatur
  • Satellitenkarten
  • Wetterkarte
  • News
  • Widgets
  • user-avatar
    Anmelden

    Stündliche Wetter Adelaide

    Heute, 16 Oktober, Dienstag

    Zeit Temperatur Niederschläge Wind Luftdruck Luftfeuchtigkeit
    00:00 +15°C° 0 mm 5 m/S 752 mmHg 84%
    01:00 +15°C° 0.1 mm 6 m/S 753 mmHg 85%
    02:00 +15°C° 0.1 mm 6 m/S 753 mmHg 86%
    03:00 +15°C° 0 mm 7 m/S 753 mmHg 88%
    04:00 +15°C° 0.2 mm 8 m/S 753 mmHg 88%
    05:00 +13°C° 0.2 mm 8 m/S 754 mmHg 88%
    06:00 +13°C° 0.2 mm 8 m/S 754 mmHg 88%
    07:00 +15°C° 0.1 mm 8 m/S 754 mmHg 87%
    08:00 +15°C° 0.1 mm 8 m/S 755 mmHg 86%
    09:00 +15°C° 0 mm 6 m/S 755 mmHg 83%
    10:00 +15°C° 0.1 mm 7 m/S 756 mmHg 84%
    11:00 +14°C° 0.1 mm 7 m/S 756 mmHg 84%
    12:00 +13°C° 0.1 mm 8 m/S 756 mmHg 85%
    13:00 +14°C° 0.1 mm 7 m/S 756 mmHg 85%
    14:00 +14°C° 0.1 mm 7 m/S 756 mmHg 85%
    15:00 +14°C° 0 mm 7 m/S 756 mmHg 83%
    16:00 +14°C° 0 mm 7 m/S 757 mmHg 84%
    17:00 +14°C° 0 mm 7 m/S 757 mmHg 85%
    18:00 +14°C° 0 mm 6 m/S 758 mmHg 86%
    19:00 +14°C° 0 mm 6 m/S 758 mmHg 86%
    20:00 +14°C° 0 mm 6 m/S 758 mmHg 87%
    21:00 +14°C° 0 mm 6 m/S 758 mmHg 88%
    22:00 +14°C° 0.1 mm 6 m/S 758 mmHg 88%
    23:00 +13°C° 0.1 mm 6 m/S 758 mmHg 88%

    Morgen, 17 Oktober, Mittwoch

    Zeit Temperatur Niederschläge Wind Luftdruck Luftfeuchtigkeit
    00:00 +12°C° 0.1 mm 7 m/S 758 mmHg 89%
    01:00 +12°C° 0 mm 7 m/S 758 mmHg 89%
    02:00 +13°C° 0 mm 6 m/S 758 mmHg 89%
    03:00 +13°C° 0 mm 6 m/S 758 mmHg 89%
    04:00 +13°C° 0 mm 6 m/S 758 mmHg 88%
    05:00 +13°C° 0 mm 6 m/S 759 mmHg 88%
    06:00 +13°C° 0 mm 6 m/S 759 mmHg 88%
    07:00 +13°C° 0 mm 6 m/S 759 mmHg 87%
    08:00 +13°C° 0 mm 6 m/S 760 mmHg 86%
    09:00 +13°C° 0 mm 6 m/S 760 mmHg 85%
    10:00 +14°C° 0 mm 5 m/S 760 mmHg 82%
    11:00 +14°C° 0 mm 5 m/S 759 mmHg 79%
    12:00 +15°C° 0 mm 5 m/S 759 mmHg 77%
    13:00 +15°C° 0 mm 5 m/S 759 mmHg 73%
    14:00 +16°C° 0 mm 5 m/S 759 mmHg 70%
    15:00 +17°C° 0 mm 5 m/S 758 mmHg 66%
    16:00 +17°C° 0 mm 4 m/S 758 mmHg 69%
    17:00 +15°C° 0 mm 4 m/S 759 mmHg 72%
    18:00 +14°C° 0 mm 3 m/S 759 mmHg 76%
    19:00 +13°C° 0 mm 3 m/S 759 mmHg 79%
    20:00 +12°C° 0 mm 3 m/S 759 mmHg 83%
    21:00 +11°C° 0 mm 4 m/S 759 mmHg 87%
    22:00 +11°C° 0 mm 3 m/S 759 mmHg 88%
    23:00 +11°C° 0 mm 3 m/S 759 mmHg 89%

    übermorgen, 18 Oktober, Donnerstag

    Zeit Temperatur Niederschläge Wind Luftdruck Luftfeuchtigkeit
    00:00 +11°C° 0 mm 3 m/S 759 mmHg 90%
    01:00 +11°C° 0 mm 3 m/S 759 mmHg 90%
    02:00 +10°C° 0 mm 3 m/S 759 mmHg 90%
    03:00 +10°C° 0 mm 3 m/S 758 mmHg 90%
    04:00 +11°C° 0 mm 3 m/S 759 mmHg 89%
    05:00 +12°C° 0 mm 2 m/S 759 mmHg 88%
    06:00 +12°C° 0 mm 2 m/S 759 mmHg 87%
    07:00 +14°C° 0 mm 2 m/S 759 mmHg 79%
    08:00 +15°C° 0 mm 2 m/S 759 mmHg 72%
    09:00 +18°C° 0 mm 1 m/S 759 mmHg 64%
    10:00 +18°C° 0 mm 2 m/S 759 mmHg 56%
    11:00 +20°C° 0 mm 2 m/S 758 mmHg 49%
    12:00 +21°C° 0 mm 2 m/S 758 mmHg 41%
    13:00 +23°C° 0 mm 2 m/S 757 mmHg 39%
    14:00 +23°C° 0 mm 2 m/S 757 mmHg 36%
    15:00 +24°C° 0 mm 2 m/S 756 mmHg 34%
    16:00 +21°C° 0 mm 2 m/S 756 mmHg 41%
    17:00 +19°C° 0 mm 2 m/S 756 mmHg 47%
    18:00 +17°C° 0 mm 2 m/S 756 mmHg 54%
    19:00 +16°C° 0 mm 2 m/S 756 mmHg 58%
    20:00 +15°C° 0 mm 2 m/S 756 mmHg 62%
    21:00 +14°C° 0 mm 3 m/S 757 mmHg 66%
    22:00 +14°C° 0 mm 3 m/S 756 mmHg 67%
    23:00 +14°C° 0 mm 4 m/S 755 mmHg 68%

    19 Oktober, Freitag

    Zeit Temperatur Niederschläge Wind Luftdruck Luftfeuchtigkeit
    00:00 +14°C° 0 mm 4 m/S 755 mmHg 69%
    01:00 +15°C° 0 mm 5 m/S 754 mmHg 63%
    02:00 +16°C° 0 mm 5 m/S 753 mmHg 56%
    03:00 +16°C° 0 mm 6 m/S 752 mmHg 49%
    04:00 +17°C° 0 mm 6 m/S 752 mmHg 45%
    05:00 +18°C° 0 mm 7 m/S 751 mmHg 41%
    06:00 +20°C° 0 mm 7 m/S 751 mmHg 37%
    07:00 +23°C° 0 mm 8 m/S 751 mmHg 33%
    08:00 +26°C° 0 mm 8 m/S 751 mmHg 29%
    09:00 +28°C° 0 mm 9 m/S 751 mmHg 24%
    10:00 +28°C° 0.1 mm 10 m/S 751 mmHg 27%
    11:00 +28°C° 0.1 mm 10 m/S 751 mmHg 30%
    12:00 +28°C° 0.1 mm 10 m/S 750 mmHg 33%
    13:00 +27°C° 0 mm 10 m/S 751 mmHg 40%
    14:00 +24°C° 0 mm 10 m/S 751 mmHg 48%
    15:00 +22°C° 0 mm 9 m/S 751 mmHg 56%
    16:00 +21°C° 0 mm 8 m/S 752 mmHg 61%
    17:00 +18°C° 0 mm 7 m/S 753 mmHg 65%
    18:00 +16°C° 0 mm 6 m/S 754 mmHg 70%
    19:00 +15°C° 0 mm 6 m/S 755 mmHg 73%
    20:00 +14°C° 0 mm 5 m/S 756 mmHg 77%
    21:00 +13°C° 0 mm 5 m/S 757 mmHg 80%
    22:00 +13°C° 0 mm 5 m/S 757 mmHg 80%
    23:00 +12°C° 0 mm 4 m/S 758 mmHg 79%

    20 Oktober, Samstag

    Zeit Temperatur Niederschläge Wind Luftdruck Luftfeuchtigkeit
    00:00 +12°C° 0 mm 4 m/S 758 mmHg 79%
    01:00 +11°C° 0 mm 4 m/S 758 mmHg 79%
    02:00 +11°C° 0 mm 4 m/S 758 mmHg 79%
    03:00 +11°C° 0 mm 4 m/S 758 mmHg 80%
    04:00 +11°C° 0 mm 4 m/S 759 mmHg 78%
    05:00 +11°C° 0 mm 3 m/S 759 mmHg 76%
    06:00 +12°C° 0 mm 3 m/S 760 mmHg 74%
    07:00 +13°C° 0 mm 3 m/S 760 mmHg 66%
    08:00 +15°C° 0 mm 4 m/S 761 mmHg 58%
    09:00 +17°C° 0 mm 4 m/S 761 mmHg 50%
    10:00 +18°C° 0 mm 4 m/S 761 mmHg 48%
    11:00 +19°C° 0 mm 4 m/S 761 mmHg 45%
    12:00 +19°C° 0 mm 4 m/S 761 mmHg 43%
    13:00 +19°C° 0 mm 4 m/S 761 mmHg 43%
    14:00 +19°C° 0 mm 4 m/S 760 mmHg 42%
    15:00 +19°C° 0 mm 4 m/S 760 mmHg 42%
    16:00 +18°C° 0 mm 3 m/S 760 mmHg 48%
    17:00 +16°C° 0 mm 3 m/S 761 mmHg 53%
    18:00 +15°C° 0 mm 2 m/S 761 mmHg 59%
    19:00 +14°C° 0 mm 2 m/S 761 mmHg 64%
    20:00 +13°C° 0 mm 2 m/S 762 mmHg 69%
    21:00 +12°C° 0 mm 1 m/S 762 mmHg 74%
    22:00 +12°C° 0 mm 1 m/S 762 mmHg 76%
    23:00 +11°C° 0 mm 1 m/S 761 mmHg 78%

    21 Oktober, Sonntag

    Zeit Temperatur Niederschläge Wind Luftdruck Luftfeuchtigkeit
    00:00 +11°C° 0 mm 1 m/S 761 mmHg 80%
    01:00 +11°C° 0 mm 1 m/S 761 mmHg 80%
    02:00 +11°C° 0 mm 1 m/S 761 mmHg 80%
    03:00 +10°C° 0 mm 2 m/S 760 mmHg 81%
    04:00 +10°C° 0 mm 2 m/S 760 mmHg 77%
    05:00 +10°C° 0 mm 2 m/S 761 mmHg 74%
    06:00 +11°C° 0 mm 3 m/S 761 mmHg 70%
    07:00 +14°C° 0 mm 3 m/S 760 mmHg 60%
    08:00 +18°C° 0 mm 3 m/S 760 mmHg 50%
    09:00 +20°C° 0 mm 4 m/S 760 mmHg 40%
    10:00 +22°C° 0 mm 4 m/S 759 mmHg 37%
    11:00 +23°C° 0 mm 4 m/S 758 mmHg 33%
    12:00 +26°C° 0 mm 4 m/S 757 mmHg 30%
    13:00 +26°C° 0 mm 4 m/S 757 mmHg 30%
    14:00 +26°C° 0 mm 4 m/S 756 mmHg 29%
    15:00 +26°C° 0 mm 4 m/S 755 mmHg 29%
    16:00 +25°C° 0 mm 3 m/S 755 mmHg 33%
    17:00 +23°C° 0 mm 2 m/S 755 mmHg 36%
    18:00 +21°C° 0 mm 1 m/S 755 mmHg 40%
    19:00 +20°C° 0 mm 1 m/S 755 mmHg 40%
    20:00 +20°C° 0 mm 1 m/S 755 mmHg 41%
    21:00 +19°C° 0 mm 1 m/S 756 mmHg 41%
    22:00 +17°C° 0 mm 2 m/S 755 mmHg 41%
    23:00 +17°C° 0 mm 2 m/S 755 mmHg 40%
    Mehr zeigen